Notices

What's New in latest Release from April 7th, 2021:

- Updated Glossary, including Speed of Maximum Gust, and Total Hourly Precipitation

- Updated national and regional climate services offices contacts and prices information

- Addition of station inventory lists for 1981-2010, 1971-2000, and 1961-1990 Normals.

If you haven't already, please take our survey and provide feedback about our website: https://eccc.sondage-survey.ca/f/LanguageSelection.aspx?s=442ca660-fcf1-47c0-95a9-59707d6fd709

Hourly Data Report for September 21, 2015

IQALUIT CLIMATE
NUNAVUT

63°44'50.000" N
68°32'40.000" W
33.50 m
2402592
71321
XFB

Download Data

Hourly Data (September 2015)
Hourly Data Report for September 21, 2015
TIME
LST
Temp Definition
°C
Dew Point Definition
°C
Rel Hum Definition
%
Precip. Amount Definition
mm

Wind Dir Definition
10's deg

Wind Spd Definition
km/h
Visibility Definition
km
Stn Press Definition
kPa
Hmdx Definition


Wind Chill Definition


Weather Definition


00:00 0.1 -0.2 98 0.0 11 1   100.83     LegendNANA
01:00 0.0 -0.3 98 0.0 33 4   100.82   -1 LegendNANA
02:00 0.0 -0.3 98 0.0 33 8   100.81   -3 LegendNANA
03:00 -0.1 -0.4 98 0.2 33 10   100.82   -3 LegendNANA
04:00 -0.5 -1.1 95 0.0 35 14   100.83   -5 LegendNANA
05:00 -1.2 -2.2 93 0.0 36 16   100.83   -6 LegendNANA
06:00 -1.8 -2.4 95 0.0 34 11   100.81   -6 LegendNANA
07:00 -1.1 -1.5 97 0.0 36 12   100.78   -5 LegendNANA
08:00 0.6 -0.8 91 0.0 35 7   100.75     LegendNANA
09:00 1.9 -1.1 81 0.0 32 12   100.76     LegendNANA
10:00 2.8 -1.0 76 0.0 33 14   100.74     LegendNANA
11:00 4.0 -1.9 66 0.0 31 7   100.66     LegendNANA
12:00 4.9 -2.4 59 0.0 24 9   100.63     LegendNANA
13:00 4.8 -1.8 62 0.0 22 12   100.64     LegendNANA
14:00 4.9 -2.7 58 0.0 22 10   100.63     LegendNANA
15:00 3.3 -1.2 73 0.0 16 8   100.61     LegendNANA
16:00 2.6 -1.5 74 0.0 19 7   100.63     LegendNANA
17:00 1.5 -1.5 81 0.0 13 9   100.61     LegendNANA
18:00 1.1 -2.1 79 0.0 13 7   100.58     LegendNANA
19:00 0.8 -2.2 80 0.0 14 4   100.64     LegendNANA
20:00 1.5 -2.9 73 0.0 13 9   100.64     LegendNANA
21:00 1.7 -2.5 74 0.0 13 11   100.62     LegendNANA
22:00 1.3 -3.0 73 0.0 14 16   100.57     LegendNANA
23:00 1.2 -2.6 76 0.0 14 13   100.56     LegendNANA

Notes on Data Quality.

Legend

  • E = Estimated
  • M = Missing
  • NA = Not Available*
  • [empty] = Indicates an unobserved value
Date modified: